Regional Weather Roundup
Issued by NWS

Home | Current Version | Previous Version | Text Only | Print | Product List | Glossary Off
Versions: 1 2 3 4 5 6 7 8 9 10 11 12 13 14 15 16 17 18 19 20 21 22 23 24 25 26 27 28 29

000
ASUS45 KCYS 290910
RWRWY

WYOMING REGIONAL WEATHER ROUNDUP
NATIONAL WEATHER SERVICE CHEYENNE WY
300 AM MDT WED OCT 29 2014

NOTE:  "FAIR" INDICATES FEW OR NO CLOUDS BELOW 12,000 FEET
WITH NO SIGNIFICANT WEATHER AND/OR OBSTRUCTIONS TO VISIBILITY.

WYZ001-291000-
YELLOWSTONE NATIONAL PARK

CITY           SKY/WX    TMP DP  RH WIND       PRES   REMARKS
LK YELLOWSTONE   N/A     18  15  88 NW5       30.27  WCI  11
W YELLOWSTONE  NOT AVBL

$$
WYZ002>013-054>058-071-098>099-291000-
NORTHERN WYOMING

CITY           SKY/WX    TMP DP  RH WIND       PRES   REMARKS
JACKSON        CLEAR     21  19  93 N5        30.27F WCI  15
CODY           PTCLDY    46  16  29 SW12      30.09
GREYBULL       PTCLDY    31  14  49 CALM      30.12R
WORLAND        PTCLDY    27  12  53 CALM      30.11S
SHERIDAN       CLEAR     29  17  61 N3        30.03S
BUFFALO        CLEAR     40  17  39 W10       30.06F WCI  33
GILLETTE       CLEAR     38  17  42 S17       30.06F WCI  28
HULETT         FAIR      37  19  48 SW8       30.08  WCI  31
NEWCASTLE      FAIR      32  18  55 CALM      30.13

$$
WYZ014>020-022>026-101>103-291000-
CENTRAL WYOMING

CITY           SKY/WX    TMP DP  RH WIND       PRES   REMARKS
BIG PINEY      CLEAR     20  11  68 CALM      30.29S
PINEDALE       MOSUNNY   18  14  86 W5        30.29  WCI  11
DUBOIS         FAIR      34  16  47 N20G29    30.20R WCI  22
LANDER         MOCLDY    33  12  41 CALM      30.14S
RIVERTON       PTCLDY    36  16  44 SW7       30.15S WCI  30
CASPER         CLEAR     38   9  30 SW10      30.14F WCI  31
DOUGLAS        CLEAR     22  14  71 CALM      30.14F

$$
WYZ021-027>030-104>119-291000-
SOUTHERN WYOMING

CITY           SKY/WX    TMP DP  RH WIND       PRES   REMARKS
EVANSTON       PTCLDY    34   8  33 SW7       30.30S WCI  28
FORT BRIDGER   FAIR      35   7  30 W6        30.32S WCI  30
ROCK SPRINGS   PTCLDY    31  12  45 SW12      30.28S WCI  22
DIXON          FAIR      24  16  71 SE6       30.33F WCI  16
RAWLINS        PTCLDY    36   8  31 W14       30.25S WCI  27
SARATOGA       FAIR      27  12  54 SE7       30.28S WCI  19
LARAMIE        CLEAR     36  10  34 SW14      30.22S WCI  27
CHEYENNE       CLEAR     36  15  42 W9        30.19S WCI  29
TORRINGTON     PTCLDY    25  20  81 NW3       30.14S
PINE BLUFFS    FAIR      28  21  74 S5        30.19R WCI  23

$$



USA.gov is the U.S. government's official web portal to all federal, state and local government web resources and services.